Location: Plzen
(49.7500°N, 13.3670°E)
Time: 03:12:07
(UTC+01:00)

ISS - Pass Details

Date: 01 October 2020
Orbit: 417 x 420 km, 51.6° (Epoch: 25 October)

Event Time Altitude Azimuth Distance (km) Brightness Sun altitude
Rises 19:29:26 0° 285° (WNW) 2,369 2.1 -8.1°
Reaches altitude 10° 19:31:32 10° 287° (WNW) 1,504 0.6 -8.5°
Maximum altitude 19:34:54 77° 12° (NNE) 436 -3.7 -9.0°
Enters shadow 19:37:46 14° 100° (E) 1,291 -2.0 -9.5°
